Погода в Буффало

США     42˚53′09″N   78˚52′41″W
темп.,
°C
ветер,
м/с
пор.,
м/с
влажн.,
%
обл.,
%
осадки,
мм/ч
давл.,
гПа
погр.,
м
5 декабря, сб
сб501:00+1˚з128817 0.0 1013116
04:00+2˚ссз369188 0.1 1013373
07:00+1˚ссз478467 0.1 1014527
10:00+1˚ссз478195 0.0 1016605
13:00+1˚ссз477598 0.0 1016700
16:00+1˚ссз4774100 0.0 1016741
19:00ссз477299 0.0 1017735
22:00−1˚ссз476985 0.0 1017723
6 декабря, вс
вс601:00−2˚ссз367071 0.0 1017725
04:00−2˚ссз367179 0.0 1017720
07:00−2˚сз367080 0.0 1017716
10:00−1˚ссз466080 0.0 1017916
13:00сз465455 0.0 1015894
16:00сз36594 0.0 1015935
19:00−1˚сз36687 0.0 1015666
22:00−1˚сз357083 0.0 1015615
7 декабря, пн
пн701:00−2˚сз256979 0.0 1014580
04:00−2˚сз356976 0.0 1014565
07:00−2˚сз366853 0.0 1014601
10:00−1˚сз466428 0.0 1014917
13:00сз475963 0.0 10131046
16:00сз375846 0.0 1013925
19:00−1˚сз386545 0.0 1014630
22:00−2˚ссз37620 0.0 1015557
8 декабря, вт
вт801:00−2˚ссз36610 0.0 1015495
04:00−2˚сз25630 0.0 1015414
07:00−2˚сз24650 0.0 1017342
10:00−1˚сз24580 0.0 1018494
13:00+1˚зсз245326 0.0 1018539
16:00з24570 0.0 1017188
19:00−1˚з25660 0.0 1018177
22:00−1˚зюз26750 0.0 1018189
9 декабря, ср
ср901:00зюз387150 0.0 1017329
04:00зюз3117915 0.0 1017379
07:00+2˚юз4118854 0.0 1017508
10:00+3˚юз6128299 0.0 1017823
13:00+4˚юз7127999 0.0 1015895
16:00+5˚юз71380100 0.0 1013948
19:00+5˚юз61280100 0.0 1013886
22:00+5˚юз71382100 0.0 1012979